Tracking 32407 objects as of 6-Dec-2025
HD Live streaming from Space Station
objects crossing your sky now

STARLINK-30090

Track STARLINK-30090 now!
10-day predictions
STARLINK-30090 is classified as:


NORAD ID: 56293
Int'l Code: 2023-056H
Perigee: 565.0 km
Apogee: 567.1 km
Inclination: 43.0 °
Period: 95.8 minutes
Semi major axis: 6937 km
RCS: Unknown
Launch date: April 19, 2023
Source: United States (US)
Launch site: AIR FORCE EASTERN TEST RANGE (AFETR)
Your satellite tracking list
Your tracking list is empty




NASA's NSSDC Master Catalog

Two Line Element Set (TLE):
1 56293U 23056H   25339.12322933 -.00008788  00000-0 -63529-3 0  9999
2 56293  43.0024   4.5392 0001536 267.2287  92.8380 15.02592959145795
Source of the keplerian elements: AFSPC